HISPASAT 30W-6          
1 43228U 18023A   19257.81892854 -.00000227  00000-0  00000-0 0  9994
2 43228   0.0447  43.4207 0003716  95.6434 119.2462  1.00272925  5743
PODSAT                  
1 43229U 18023B   19257.81991232  .00118793  99823-6  83530-3 0  9991
2 43229  26.9858  23.0512 5934233 152.4403 258.6791  4.25926282 30170
FALCON 9 R/B            
1 43230U 18023C   19256.28972928  .00194165  65675-6  59311-3 0  9999
2 43230  26.9537 355.9488 5661682 197.7220 129.4368  4.70461268 22937